x

Yucatan Basin - 120 Nm Ese Of Cozumel, Mx (42056) Wave Buoy

9:50 - Thu 21st Aug 2014 All times are CDT. -5 hours from GMT.

  • Sig Wave height 3.0ft
  • Swell Direction
  • Peak Period 5s
  • Average Period 4s
  • Wind
    13mph, 16mph gusts
  • Sea Temp 86°f
  • Aire Temp 86°f
  • Sea Pressure 1016mb
  •  Yucatan Basin - 120 Nm Ese Of Cozumel, Mx
  •  Yucatan Basin - 120 Nm Ese Of Cozumel, Mx

More Historic Weather Station data

Upgrade to MSW Pro to gain access to the past 30 days of data for over 8000 Wavebouys and Weather Stations around the globe.

Join Pro

Comparision Forecast

View Surf forecast
   
jue 08/21 9:50 3ft 5s 4s 13 16 mph 1016mb 86f 86f
8:50 2.5ft 7s 4s 16 18 mph 1015.8mb 86f 86f
7:50 2.5ft 5s 4s 16 18 mph 1015.4mb 86f 86f
6:50 2.5ft 5s 4s 16 18 mph 1014.7mb 86f 85f
5:50 2.5ft 8s 4s 13 16 mph 1014.6mb 86f 85f
4:50 2.5ft 8s 5s 13 16 mph 1014.5mb 86f 85f
3:50 2.5ft 8s 5s 13 16 mph 1014.6mb 86f 85f
2:50 2.5ft 8s 5s 11 13 mph 1014.8mb 86f 85f
1:50 2.5ft 8s 5s 11 13 mph 1015.3mb 86f 85f
12:50 2.5ft 9s 5s 13 16 mph 1015.8mb 86f 86f
mié 08/20 11:50 2.5ft 9s 5s 13 16 mph 1016.4mb 86f 86f
10:50 2.5ft 8s 5s 11 13 mph 1016.8mb 86f 86f
9:50 2.5ft 8s 5s 11 13 mph 1016.5mb 86f 86f
8:50 2.5ft 7s 5s 11 13 mph 1015.9mb 86f 86f
7:50 2.5ft 8s 5s 11 16 mph 1015.5mb 86f 86f
6:50 3ft 9s 4s 13 16 mph 1014.9mb 86f 86f
5:50 3ft 8s 5s 13 16 mph 1014.8mb 86f 86f
4:50 2.5ft 8s 5s 13
mph
1014.7mb 86f 86f
3:50 2.5ft 6s 5s 13
mph
1015mb 86f 86f
2:50 3ft 8s 5s 11 13 mph 1015.4mb 86f 86f
1:50 3ft 6s 4s 13 16 mph 1015.8mb 86f 86f
12:50 3ft 6s 5s 11 13 mph 1016.4mb 86f 86f
11:50 3ft 9s 5s 13 16 mph 1016.4mb 86f 86f
10:50 3ft 8s 5s 13
mph
1016.3mb 86f 86f
9:50 3.5ft 5s 5s 11 13 mph 1016.2mb 86f 85f
8:50 3ft 6s 5s 11 13 mph 1015.6mb 86f 86f
7:50 3.5ft 8s 5s 11
mph
1015mb 86f 85f
6:50 3ft 6s 5s 13 16 mph 1014.3mb 86f 85f
5:50 3ft 5s 5s 11 16 mph 1013.7mb 86f 85f
4:50 3ft 5s 5s 16 18 mph 1013.2mb 86f 85f
3:50 3ft 9s 5s 13 16 mph 1013.1mb 86f 85f
2:50 3.5ft 9s 5s 13 16 mph 1013.2mb 86f 85f
1:50 3ft 9s 5s 13 16 mph 1013.9mb 86f 86f
12:50 3.5ft 9s 5s 13 18 mph 1014.5mb 86f 86f
mar 08/19 11:50 3.5ft 9s 5s 13 16 mph 1014.9mb 86f 86f
10:50 3.5ft 9s 5s 11 13 mph 1015.2mb 86f 86f
9:50 3.5ft 9s 5s 13 18 mph 1014.8mb 86f 86f
8:50 3.5ft 8s 5s 13 16 mph 1014.3mb 86f 86f
7:50 3.5ft 7s 5s 16 18 mph 1014mb 86f 86f
6:50 3.5ft 8s 5s 13 16 mph 1013.6mb 86f 86f
5:50 3.5ft 7s 5s 13
mph
1013.3mb 87f 86f
4:50 3ft 8s 5s 13 16 mph 1013.4mb 87f 86f
3:50 3.5ft 5s 5s 11 13 mph 1013.5mb 87f 86f
2:50 3ft 6s 5s 13 16 mph 1014.1mb 87f 86f
1:50 3ft 7s 5s 11 13 mph 1014.5mb 87f 86f
12:50 3.5ft 7s 5s 9 11 mph 1014.5mb 86f 86f
11:50 3.5ft 8s 5s 11 13 mph 1014.7mb 86f 86f
10:50 3.5ft 6s 5s 13
mph
1015mb 86f 86f
9:50 3.5ft 6s 5s 13 18 mph 1014.9mb 86f 86f
8:50 3.5ft 7s 5s 13 16 mph 1014.9mb 86f 86f
7:50 3.5ft 8s 5s 13 16 mph 1014.6mb 86f 86f
6:50 4ft 8s 5s 16 18 mph 1014.2mb 86f 86f
5:50 3.5ft 8s 5s 16 18 mph 1013.7mb 86f 85f
4:50 3.5ft 8s 5s 9 13 mph 1013.4mb 86f 85f
3:50 3.5ft 5s 5s 9 11 mph 1013.3mb 86f 85f
2:50 3.5ft 5s 5s 13 16 mph 1013.3mb 86f 85f
1:50 3.5ft 5s 5s 16 20 mph 1013.6mb 86f 86f
12:50 3.5ft 8s 5s 11
mph
1014.4mb 86f 84f
lun 08/18 11:50 3ft 6s 5s 16 25 mph 1015.3mb 86f 82f
10:50 3ft 8s 5s 11 13 mph 1015.1mb 86f 85f
9:50 3ft 6s 5s 9 11 mph 1014.1mb 86f 85f
8:50 3ft 6s 5s 9 11 mph 1013.5mb 86f 84f
7:50 3.5ft 6s 5s 9 11 mph 1013.6mb 86f 83f
6:50 3.5ft 6s 5s 11 13 mph 1012.6mb 86f 84f
5:50 3ft 8s 5s 16 18 mph 1012.1mb 86f 85f
4:50 3ft 6s 5s 7 9 mph 1012.3mb 86f 84f
3:50 3.5ft 8s 5s 11 13 mph 1012.5mb 87f 86f
2:50 3.5ft 7s 5s 11 13 mph 1012.9mb 86f 86f
1:50 3ft 6s 5s 13 16 mph 1013.7mb 86f 86f
12:50 3ft 8s 5s 13 16 mph 1014mb 86f 86f
11:50 3ft 6s 5s 13 16 mph 1014.7mb 86f 86f
10:50 3ft 8s 6s 9 13 mph 1015.1mb 86f 85f
9:50 3ft 8s 5s 7 9 mph 1015.1mb 86f 85f
8:50 3.5ft 7s 5s 7 9 mph 1015mb 86f 85f
7:50 3.5ft 7s 5s 4 7 mph 1014.8mb 86f 86f
6:50 3.5ft 7s 5s 9 13 mph 1014.4mb 86f 85f
5:50 3.5ft 8s 5s 11 13 mph 1013.9mb 86f 85f
4:50 3.5ft 7s 5s 11 13 mph 1013.9mb 86f 85f
3:50 3.5ft 8s 5s 11 16 mph 1013.9mb 86f 85f
2:50 3.5ft 9s 5s 13
mph
1013.9mb 86f 85f
1:50 3.5ft 8s 5s 11 13 mph 1014.2mb 86f 85f
12:50 3.5ft 6s 5s 11 13 mph 1014.9mb 86f 85f
dom 08/17 11:50 3.5ft 8s 5s 13 16 mph 1015.4mb 86f 85f
10:50 3.5ft 9s 5s 9 11 mph 1015.6mb 86f 85f
9:50 3.5ft 8s 5s 13 16 mph 1015.2mb 86f 85f
8:50 3.5ft 8s 5s 18 20 mph 1014.7mb 86f 85f
7:50 3.5ft 9s 5s 13 18 mph 1014.1mb 86f 86f
6:50 3.5ft 8s 5s 13
mph
1014.1mb 86f 86f
5:50 3.5ft 8s 5s 13 16 mph 1013.8mb 86f 86f
4:50 3.5ft 8s 5s 11 13 mph 1013.8mb 86f 86f
3:50 3.5ft 9s 5s 13 16 mph 1014.1mb 86f 86f